Location: Newark
(47.5833°N, 8.1500°E)
Time: 16:51:37
(UTC+00:00)

Tiros 1 despin weight - Pass Details

Date: 30 October 2020
Orbit: 593 x 642 km, 48.2° (Epoch: 27 November)

Event Time Altitude Azimuth Distance (km) Brightness Sun altitude
Rises 23:16:04 0° 234° (SW) 2,871 - -56.6°
Reaches altitude 10° 23:18:26 10° 229° (SW) 1,960 - -56.6°
Maximum altitude 23:22:46 49° 154° (SSE) 782 - -56.5°
Drops below altitude 10° 23:27:03 10° 80° (E) 1,941 - -56.4°
Sets 23:29:23 0° 75° (ENE) 2,840 - -56.4°
